This demonstration page uses our WeatherBlox Daily Observations layout. Learn more.

39.01783, -85.05884

Hourly Observations for November 13, 2019

Temp ( °F °C ) Dew Point ( °F °C ) Humidity (%) Winds ( mph kmh ) Pressure ( in mb ) Visibility ( mi km ) Precip ( " mm )
12:52 am 00:52 Clear 13 -10.6 8 -13.3 81 81 Calm 30.45 1031 10 16.0934 0 0
1:52 am 01:52 Clear 14 -10 8 -13.3 77 77 N 6 9 30.44 1031 10 16.0934 0 0
2:52 am 02:52 Clear 14 -10 7 -13.9 73 73 NNE 5 7 30.43 1031 10 16.0934 0 0
3:52 am 03:52 Clear 13 -10.6 5 -15 70 70 N 5 7 30.44 1031 10 16.0934 0 0
4:52 am 04:52 Clear 13 -10.6 6 -14.4 74 74 NW 3 6 30.46 1031 10 16.0934 0 0
5:52 am 05:52 Mostly Clear 11 -11.7 6 -14.4 81 81 Calm 30.44 1031 10 16.0934 0 0
6:52 am 06:52 Partly Cloudy 14 -10 8 -13.3 77 77 ESE 5 7 30.43 1031 10 16.0934 0 0
7:52 am 07:52 Mostly Cloudy 14 -10 9 -12.8 80 80 SE 7 11 30.42 1030 8 12.87472 0 0
8:52 am 08:52 Partly Cloudy 17 -8.3 11 -11.7 77 77 SE 8 13 30.43 1031 9 14.48406 0 0
9:52 am 09:52 Partly Cloudy 19 -7.2 13 -10.6 77 77 SE 10 17 30.41 1030 10 16.0934 0 0
10:52 am 10:52 Mostly Cloudy 22 -5.6 14 -10 71 71 SSE 12 19 30.4 1029 10 16.0934 0 0
11:52 am 11:52 Mostly Cloudy 24 -4.4 15 -9.4 68 68 SSE 14 22 30.36 1028 10 16.0934 0 0
12:52 pm 12:52 Mostly Cloudy 26 -3.3 14 -10 60 60 SSW 9 15 30.36 1028 10 16.0934 0 0
1:52 pm 13:52 Mostly Cloudy 27 -2.8 15 -9.4 61 61 SSE 5 7 30.34 1027 10 16.0934 0 0
2:52 pm 14:52 Mostly Cloudy 28 -2.2 14 -10 56 56 S 5 7 30.32 1027 10 16.0934 0 0
3:52 pm 15:52 Cloudy 29 -1.7 14 -10 54 54 SE 12 19 30.27 1025 10 16.0934 0 0
4:52 pm 16:52 Cloudy 29 -1.7 14 -10 54 54 SE 14 22 30.25 1024 10 16.0934 0 0
5:52 pm 17:52 Partly Cloudy 28 -2.2 18 -7.8 66 66 SSE 12 19 30.25 1024 10 16.0934 0 0
6:52 pm 18:52 Mostly Cloudy 26 -3.3 17 -8.3 69 69 S 9 15 30.24 1024 10 16.0934 0 0
7:52 pm 19:52 Mostly Cloudy 25 -3.9 16 -8.9 69 69 S 5 7 30.24 1024 10 16.0934 0 0
8:52 pm 20:52 Cloudy 25 -3.9 17 -8.3 72 72 SSE 6 9 30.23 1024 10 16.0934 0 0
9:52 pm 21:52 Cloudy 27 -2.8 18 -7.8 69 69 S 9 15 30.19 1023 10 16.0934 0 0
10:52 pm 22:52 Cloudy 27 -2.8 18 -7.8 69 69 S 7 11 30.2 1023 10 16.0934 0 0
11:52 pm 23:52 Cloudy 25 -3.9 18 -7.8 75 75 S 6 9 30.19 1023 10 16.0934 0 0

Powered by AerisWeather